User: anonymous   Login
Location: Balaclava NSW 2575, Australia
(34.4510°S, 150.4953°E)
Time: 00:02:46
(UTC+10:00)
Language:

Altair - Orbit

View from above orbital plane
View from above orbital plane
View from above satellite
View from above satellite

Ground track
Ground track

The orbit data is extracted from the following two-line orbital elements,

1    50U 60009B   21172.69372833 -.00000130  00000-0 -42311-3 0  9994
2    50  47.2332  55.2712 0114127 346.1712  13.5962 12.20117055715755
Epoch (UTC): 21 June 2021 16:38:58
Eccentricity: 0.0114127
inclination: 47.2332°
perigee height: 1501 km
apogee height: 1683 km
right ascension of ascending node: 55.2712°
argument of perigee: 346.1712°
revolutions per day: 12.20117055
mean anomaly at epoch: 13.5962°
orbit number at epoch: 71575

The dashed part of the orbit path shows where the satellite is in the earth's shadow,  

DLR